28/04/2024 15:00:00,1.07
28/04/2024 15:15:00,1.071
28/04/2024 15:30:00,1.074
28/04/2024 15:45:00,1.077
28/04/2024 16:00:00,1.079
28/04/2024 16:15:00,1.082
28/04/2024 16:30:00,1.084
28/04/2024 16:45:00,1.087
28/04/2024 17:00:00,1.089
28/04/2024 17:15:00,1.092
28/04/2024 17:30:00,1.095
28/04/2024 17:45:00,1.1
28/04/2024 18:00:00,1.103
28/04/2024 18:15:00,1.108
28/04/2024 18:30:00,1.113
28/04/2024 18:45:00,1.117
28/04/2024 19:00:00,1.122
28/04/2024 19:15:00,1.128
28/04/2024 19:30:00,1.132
28/04/2024 19:45:00,1.138
28/04/2024 20:00:00,1.143
28/04/2024 20:15:00,1.147
28/04/2024 20:30:00,1.152
28/04/2024 20:45:00,1.158
28/04/2024 21:00:00,1.162
28/04/2024 21:15:00,1.166
28/04/2024 21:30:00,1.173
28/04/2024 21:45:00,1.176
28/04/2024 22:00:00,1.181
28/04/2024 22:15:00,1.186
28/04/2024 22:30:00,1.19
28/04/2024 22:45:00,1.194
28/04/2024 23:00:00,1.199
28/04/2024 23:15:00,1.204
28/04/2024 23:30:00,1.207
28/04/2024 23:45:00,1.211
29/04/2024 00:00:00,1.214
29/04/2024 00:15:00,1.215
29/04/2024 00:30:00,1.218
29/04/2024 00:45:00,1.22
29/04/2024 01:00:00,1.222
29/04/2024 01:15:00,1.223
29/04/2024 01:30:00,1.224
29/04/2024 01:45:00,1.224
29/04/2024 02:00:00,1.224
29/04/2024 02:15:00,1.224
29/04/2024 02:30:00,1.224
29/04/2024 02:45:00,1.224
29/04/2024 03:00:00,1.224
29/04/2024 03:15:00,1.222
29/04/2024 03:30:00,1.222
29/04/2024 03:45:00,1.22
29/04/2024 04:00:00,1.219
29/04/2024 04:15:00,1.218
29/04/2024 04:30:00,1.216
29/04/2024 04:45:00,1.214
29/04/2024 05:00:00,1.212
29/04/2024 05:15:00,1.212
29/04/2024 05:30:00,1.209
29/04/2024 05:45:00,1.207
29/04/2024 06:00:00,1.206
29/04/2024 06:15:00,1.202
29/04/2024 06:30:00,1.201
29/04/2024 06:45:00,1.199
29/04/2024 07:00:00,1.196
29/04/2024 07:15:00,1.194
29/04/2024 07:30:00,1.191
29/04/2024 07:45:00,1.189
29/04/2024 08:00:00,1.186
29/04/2024 08:15:00,1.184
29/04/2024 08:30:00,1.183
29/04/2024 08:45:00,1.18
29/04/2024 09:00:00,1.178
29/04/2024 09:15:00,1.176
29/04/2024 09:30:00,1.174
29/04/2024 09:45:00,1.172
29/04/2024 10:00:00,1.171
29/04/2024 10:15:00,1.168
29/04/2024 10:30:00,1.166
29/04/2024 10:45:00,1.165
29/04/2024 11:00:00,1.163
29/04/2024 11:15:00,1.162
29/04/2024 11:30:00,1.161
29/04/2024 11:45:00,1.16
29/04/2024 12:00:00,1.156
29/04/2024 12:15:00,1.156
29/04/2024 12:30:00,1.153
29/04/2024 12:45:00,1.153
29/04/2024 13:00:00,1.151
29/04/2024 13:15:00,1.151
29/04/2024 13:30:00,1.148
29/04/2024 13:45:00,1.148
29/04/2024 14:00:00,1.146
29/04/2024 14:15:00,1.145
29/04/2024 14:30:00,1.143
29/04/2024 14:45:00,1.141
29/04/2024 15:00:00,1.14
29/04/2024 15:15:00,1.139
29/04/2024 15:30:00,1.138
29/04/2024 15:45:00,1.137
29/04/2024 16:00:00,1.136
29/04/2024 16:15:00,1.135
29/04/2024 16:30:00,1.133
29/04/2024 16:45:00,1.133
29/04/2024 17:00:00,1.132
29/04/2024 17:15:00,1.131
29/04/2024 17:30:00,1.128
29/04/2024 17:45:00,1.13
29/04/2024 18:00:00,1.128
29/04/2024 18:15:00,1.128
29/04/2024 18:30:00,1.127
29/04/2024 18:45:00,1.126
29/04/2024 19:00:00,1.125
29/04/2024 19:15:00,1.125
29/04/2024 19:30:00,1.124
29/04/2024 19:45:00,1.123
29/04/2024 20:00:00,1.122
29/04/2024 20:15:00,1.122
29/04/2024 20:30:00,1.121
29/04/2024 20:45:00,1.12
29/04/2024 21:00:00,1.119
29/04/2024 21:15:00,1.118
29/04/2024 21:30:00,1.118
29/04/2024 21:45:00,1.115
29/04/2024 22:00:00,1.116
29/04/2024 22:15:00,1.115
29/04/2024 22:30:00,1.115
29/04/2024 22:45:00,1.114
29/04/2024 23:00:00,1.113
29/04/2024 23:15:00,1.112
29/04/2024 23:30:00,1.112
29/04/2024 23:45:00,1.111
30/04/2024 00:00:00,1.111
30/04/2024 00:15:00,1.11
30/04/2024 00:30:00,1.109
30/04/2024 00:45:00,1.107
30/04/2024 01:00:00,1.107
30/04/2024 01:15:00,1.106
30/04/2024 01:30:00,1.106
30/04/2024 01:45:00,1.105
30/04/2024 02:00:00,1.105
30/04/2024 02:15:00,1.104
30/04/2024 02:30:00,1.103
30/04/2024 02:45:00,1.103
30/04/2024 03:00:00,1.102
30/04/2024 03:15:00,1.102
30/04/2024 03:30:00,1.102
30/04/2024 03:45:00,1.1
30/04/2024 04:00:00,1.1
30/04/2024 04:15:00,1.099
30/04/2024 04:30:00,1.099
30/04/2024 04:45:00,1.097
30/04/2024 05:00:00,1.097
30/04/2024 05:15:00,1.097
30/04/2024 05:30:00,1.096
30/04/2024 05:45:00,1.095
30/04/2024 06:00:00,1.094
30/04/2024 06:15:00,1.094
30/04/2024 06:30:00,1.094
30/04/2024 06:45:00,1.093
30/04/2024 07:00:00,1.092
30/04/2024 07:15:00,1.092
30/04/2024 07:30:00,1.092
30/04/2024 07:45:00,1.091
30/04/2024 08:00:00,1.091
30/04/2024 08:15:00,1.09
30/04/2024 08:30:00,1.089
30/04/2024 08:45:00,1.089
30/04/2024 09:00:00,1.088
30/04/2024 09:15:00,1.088
30/04/2024 09:30:00,1.087
30/04/2024 09:45:00,1.087
30/04/2024 10:00:00,1.087
30/04/2024 10:15:00,1.087
30/04/2024 10:30:00,1.086
30/04/2024 10:45:00,1.086
30/04/2024 11:00:00,1.086
30/04/2024 11:15:00,1.084
30/04/2024 11:30:00,1.084
30/04/2024 11:45:00,1.084
30/04/2024 12:00:00,1.084
30/04/2024 12:15:00,1.082
30/04/2024 12:30:00,1.082
30/04/2024 12:45:00,1.082
30/04/2024 13:00:00,1.082
30/04/2024 13:15:00,1.082
30/04/2024 13:30:00,1.082
30/04/2024 13:45:00,1.081
30/04/2024 14:00:00,1.081
30/04/2024 14:15:00,1.081
30/04/2024 14:30:00,1.081
30/04/2024 14:45:00,1.08
30/04/2024 15:00:00,1.079
30/04/2024 15:15:00,1.078
30/04/2024 15:30:00,1.077
30/04/2024 15:45:00,1.077
30/04/2024 16:00:00,1.076
30/04/2024 16:15:00,1.076
30/04/2024 16:30:00,1.076
30/04/2024 16:45:00,1.076
30/04/2024 17:00:00,1.074
30/04/2024 17:15:00,1.074
30/04/2024 17:30:00,1.073
30/04/2024 17:45:00,1.072
30/04/2024 18:00:00,1.072
30/04/2024 18:15:00,1.071
30/04/2024 18:30:00,1.071
30/04/2024 18:45:00,1.072
30/04/2024 19:00:00,1.072
30/04/2024 19:15:00,1.072
30/04/2024 19:30:00,1.071
30/04/2024 19:45:00,1.071
30/04/2024 20:00:00,1.069
30/04/2024 20:15:00,1.069
30/04/2024 20:30:00,1.069
30/04/2024 20:45:00,1.069
30/04/2024 21:00:00,1.069
30/04/2024 21:15:00,1.067
30/04/2024 21:30:00,1.066
30/04/2024 21:45:00,1.066
30/04/2024 22:00:00,1.066
30/04/2024 22:15:00,1.066
30/04/2024 22:30:00,1.066
30/04/2024 22:45:00,1.066
30/04/2024 23:00:00,1.065
30/04/2024 23:15:00,1.064
30/04/2024 23:30:00,1.064
30/04/2024 23:45:00,1.064
01/05/2024 00:00:00,1.064
01/05/2024 00:15:00,1.064
01/05/2024 00:30:00,1.063
01/05/2024 00:45:00,1.062
01/05/2024 01:00:00,1.062
01/05/2024 01:15:00,1.062
01/05/2024 01:30:00,1.062
01/05/2024 01:45:00,1.061
01/05/2024 02:00:00,1.061
01/05/2024 02:15:00,1.061
01/05/2024 02:30:00,1.061
01/05/2024 02:45:00,1.061
01/05/2024 03:00:00,1.059
01/05/2024 03:15:00,1.059
01/05/2024 03:30:00,1.059
01/05/2024 03:45:00,1.059
01/05/2024 04:00:00,1.059
01/05/2024 04:15:00,1.059
01/05/2024 04:30:00,1.059
01/05/2024 04:45:00,1.058
01/05/2024 05:00:00,1.058
01/05/2024 05:15:00,1.058
01/05/2024 05:30:00,1.058
01/05/2024 05:45:00,1.058
01/05/2024 06:00:00,1.056
01/05/2024 06:15:00,1.056
01/05/2024 06:30:00,1.057
01/05/2024 06:45:00,1.056
01/05/2024 07:00:00,1.056
01/05/2024 07:15:00,1.056
01/05/2024 07:30:00,1.056
01/05/2024 07:45:00,1.056
01/05/2024 08:00:00,1.056
01/05/2024 08:15:00,1.056
01/05/2024 08:30:00,1.055
01/05/2024 08:45:00,1.055
01/05/2024 09:00:00,1.056
01/05/2024 09:15:00,1.055
01/05/2024 09:30:00,1.056
01/05/2024 09:45:00,1.054
01/05/2024 10:00:00,1.054
01/05/2024 10:15:00,1.055
01/05/2024 10:30:00,1.054
01/05/2024 10:45:00,1.056
01/05/2024 11:00:00,1.055
01/05/2024 11:15:00,1.056
01/05/2024 11:30:00,1.055
01/05/2024 11:45:00,1.055
01/05/2024 12:00:00,1.056
01/05/2024 12:15:00,1.056
01/05/2024 12:30:00,1.055
01/05/2024 12:45:00,1.055
01/05/2024 13:00:00,1.055
01/05/2024 13:15:00,1.055
01/05/2024 13:30:00,1.054
01/05/2024 13:45:00,1.054
01/05/2024 14:00:00,1.054
01/05/2024 14:15:00,1.054
01/05/2024 14:30:00,1.054
01/05/2024 14:45:00,1.055
01/05/2024 15:00:00,1.054
01/05/2024 15:15:00,1.055
01/05/2024 15:30:00,1.054
01/05/2024 15:45:00,1.054
01/05/2024 16:00:00,1.054
01/05/2024 16:15:00,1.054
01/05/2024 16:30:00,1.054
01/05/2024 16:45:00,1.054
01/05/2024 17:00:00,1.054
01/05/2024 17:15:00,1.054
01/05/2024 17:30:00,1.054
01/05/2024 17:45:00,1.054
01/05/2024 18:00:00,1.054
01/05/2024 18:15:00,1.054
01/05/2024 18:30:00,1.053
01/05/2024 18:45:00,1.054
01/05/2024 19:00:00,1.053
01/05/2024 19:15:00,1.053
01/05/2024 19:30:00,1.054
01/05/2024 19:45:00,1.053
01/05/2024 20:00:00,1.053
01/05/2024 20:15:00,1.053
01/05/2024 20:30:00,1.052
01/05/2024 20:45:00,1.052
01/05/2024 21:00:00,1.052
01/05/2024 21:15:00,1.052
01/05/2024 21:30:00,1.052
01/05/2024 21:45:00,1.053
01/05/2024 22:00:00,1.052
01/05/2024 22:15:00,1.052
01/05/2024 22:30:00,1.051
01/05/2024 22:45:00,1.052
01/05/2024 23:00:00,1.051
01/05/2024 23:15:00,1.051
01/05/2024 23:30:00,1.051
01/05/2024 23:45:00,1.051
02/05/2024 00:00:00,1.051
02/05/2024 00:15:00,1.051
02/05/2024 00:30:00,1.051
02/05/2024 00:45:00,1.051
02/05/2024 01:00:00,1.051
02/05/2024 01:15:00,1.05
02/05/2024 01:30:00,1.05
02/05/2024 01:45:00,1.049
02/05/2024 02:00:00,1.049
02/05/2024 02:15:00,1.049
02/05/2024 02:30:00,1.049
02/05/2024 02:45:00,1.049
02/05/2024 03:00:00,1.048
02/05/2024 03:15:00,1.049
02/05/2024 03:30:00,1.048
02/05/2024 03:45:00,1.048
02/05/2024 04:00:00,1.048
02/05/2024 04:15:00,1.048
02/05/2024 04:30:00,1.048
02/05/2024 04:45:00,1.048
02/05/2024 05:00:00,1.048
02/05/2024 05:15:00,1.048
02/05/2024 05:30:00,1.048
02/05/2024 05:45:00,1.046
02/05/2024 06:00:00,1.047
02/05/2024 06:15:00,1.046
02/05/2024 06:30:00,1.046
02/05/2024 06:45:00,1.046
02/05/2024 07:00:00,1.046
02/05/2024 07:15:00,1.046
02/05/2024 07:30:00,1.046
02/05/2024 07:45:00,1.046
02/05/2024 08:00:00,1.046
02/05/2024 08:15:00,1.046
02/05/2024 08:30:00,1.045
02/05/2024 08:45:00,1.046
02/05/2024 09:00:00,1.045
02/05/2024 09:15:00,1.044
02/05/2024 09:30:00,1.044
02/05/2024 09:45:00,1.045
02/05/2024 10:00:00,1.044
02/05/2024 10:15:00,1.044
02/05/2024 10:30:00,1.044
02/05/2024 10:45:00,1.044
02/05/2024 11:00:00,1.044
02/05/2024 11:15:00,1.043
02/05/2024 11:30:00,1.043
02/05/2024 11:45:00,1.044
02/05/2024 12:00:00,1.043
02/05/2024 12:15:00,1.044
02/05/2024 12:30:00,1.045
02/05/2024 12:45:00,1.045
02/05/2024 13:00:00,1.043
02/05/2024 13:15:00,1.043
02/05/2024 13:30:00,1.043
02/05/2024 13:45:00,1.044
02/05/2024 14:00:00,1.043
02/05/2024 14:15:00,1.042
02/05/2024 14:30:00,1.043
02/05/2024 14:45:00,1.042
02/05/2024 15:00:00,1.041
02/05/2024 15:15:00,1.041
02/05/2024 15:30:00,1.042
02/05/2024 15:45:00,1.041
02/05/2024 16:00:00,1.041
02/05/2024 16:15:00,1.041
02/05/2024 16:30:00,1.041
02/05/2024 16:45:00,1.04
02/05/2024 17:00:00,1.04
02/05/2024 17:15:00,1.04
02/05/2024 17:30:00,1.039
02/05/2024 17:45:00,1.039
02/05/2024 18:00:00,1.039
02/05/2024 18:15:00,1.038
02/05/2024 18:30:00,1.039
02/05/2024 18:45:00,1.039
02/05/2024 19:00:00,1.039
02/05/2024 19:15:00,1.039
02/05/2024 19:30:00,1.038
02/05/2024 19:45:00,1.039
02/05/2024 20:00:00,1.038
02/05/2024 20:15:00,1.038
02/05/2024 20:30:00,1.038
02/05/2024 20:45:00,1.038
02/05/2024 21:00:00,1.038
02/05/2024 21:15:00,1.038
02/05/2024 21:30:00,1.037
02/05/2024 21:45:00,1.037
02/05/2024 22:00:00,1.037
02/05/2024 22:15:00,1.036
02/05/2024 22:30:00,1.036
02/05/2024 22:45:00,1.036
02/05/2024 23:00:00,1.036
02/05/2024 23:15:00,1.036
02/05/2024 23:30:00,1.036
02/05/2024 23:45:00,1.036
03/05/2024 00:00:00,1.036
03/05/2024 00:15:00,1.035
03/05/2024 00:30:00,1.035
03/05/2024 00:45:00,1.035
03/05/2024 01:00:00,1.035
03/05/2024 01:15:00,1.035
03/05/2024 01:30:00,1.035
03/05/2024 01:45:00,1.034
03/05/2024 02:00:00,1.034
03/05/2024 02:15:00,1.034
03/05/2024 02:30:00,1.033
03/05/2024 02:45:00,1.033
03/05/2024 03:00:00,1.033
03/05/2024 03:15:00,1.033
03/05/2024 03:30:00,1.033
03/05/2024 03:45:00,1.033
03/05/2024 04:00:00,1.033
03/05/2024 04:15:00,1.032
03/05/2024 04:30:00,1.031
03/05/2024 04:45:00,1.031
03/05/2024 05:00:00,1.031
03/05/2024 05:15:00,1.031
03/05/2024 05:30:00,1.031
03/05/2024 05:45:00,1.03
03/05/2024 06:00:00,1.03
03/05/2024 06:15:00,1.029
03/05/2024 06:30:00,1.029
03/05/2024 06:45:00,1.029
03/05/2024 07:00:00,1.028
03/05/2024 07:15:00,1.028
03/05/2024 07:30:00,1.028
03/05/2024 07:45:00,1.028
03/05/2024 08:00:00,1.028
03/05/2024 08:15:00,1.028
03/05/2024 08:30:00,1.028
03/05/2024 08:45:00,1.028
03/05/2024 09:00:00,1.028
03/05/2024 09:15:00,1.028
03/05/2024 09:30:00,1.028
03/05/2024 09:45:00,1.028
03/05/2024 10:00:00,1.028
03/05/2024 10:15:00,1.028
03/05/2024 10:30:00,1.028
03/05/2024 10:45:00,1.028
03/05/2024 11:00:00,1.028
03/05/2024 11:15:00,1.027
03/05/2024 11:30:00,1.027
03/05/2024 11:45:00,1.027
03/05/2024 12:00:00,1.028
03/05/2024 12:15:00,1.026
03/05/2024 12:30:00,1.026
03/05/2024 12:45:00,1.026
03/05/2024 13:00:00,1.026
03/05/2024 13:15:00,1.026
03/05/2024 13:30:00,1.026
03/05/2024 13:45:00,1.026
03/05/2024 14:00:00,1.026
03/05/2024 14:15:00,1.026
03/05/2024 14:30:00,1.026
